Regional Weather Roundup
Issued by NWS Cleveland, OH

Home | Current Version | Previous Version | Text Only | Print | Product List | Glossary Off
Versions: 1 2 3 4 5 6 7 8 9 10 11 12 13 14 15 16 17 18 19 20 21 22 23 24 25 26 27 28 29 30 31 32 33 34 35 36 37 38 39 40 41 42 43 44 45 46 47 48 49 50

562
ASUS41 KCLE 302210
RWRCLE
OHIO REGIONAL WEATHER ROUNDUP
NATIONAL WEATHER SERVICE CLEVELAND, OH
600 PM EDT SAT JUL 30 2016

NOTE: "FAIR" INDICATES FEW OR NO CLOUDS BELOW 12,000 FEET WITH NO
SIGNIFICANT WEATHER AND/OR OBSTRUCTIONS TO VISIBILITY.

OHZ001>008-015>018-024>027-034-035-043-044-302300-
   NORTHWEST OHIO

CITY           SKY/WX    TMP DP  RH WIND       PRES   REMARKS
DEFIANCE       MOSUNNY   81  68  64 E7        29.94S
FINDLAY        MOSUNNY   84  65  52 N7        29.93S
TOLEDO EXPRESS CLOUDY    79  71  76 E12       29.94S
TOLEDO EXEC    CLOUDY    77  71  82 E13G20    29.95S
LIMA           MOSUNNY   81  69  67 N6        29.94S
$$

OHZ009>014-019>023-028>033-038-089-302300-
   NORTHEAST OHIO

CITY           SKY/WX    TMP DP  RH WIND       PRES   REMARKS
CLE-HOPKINS    CLOUDY    75  69  81 S8        29.96F
CLE-LAKEFRONT  LGT RAIN  76  66  71 SE6       29.93F
CUY CO. ARPT   PTSUNNY   73  70  88 SE5       29.96R
LORAIN-ELYRIA  CLOUDY    74  68  81 S3        29.94F
ASHTABULA      CLOUDY    74  71  91 NE3       29.97R
AKRON-CANTON   LGT RAIN  74  66  76 N7        29.97R
WOOSTER        LGT RAIN  72  69  90 E7        29.95F
MANSFIELD      CLOUDY    74  64  71 E5        29.97S
YOUNGSTOWN     LGT RAIN  70  68  93 S3        29.95F
$$

OHZ042-051>053-060>062-070>072-077>081-302300-
  SOUTHWEST OHIO

CITY           SKY/WX    TMP DP  RH WIND       PRES   REMARKS
CINC-COVINGTON CLOUDY    82  69  64 W7        29.95S
CINC-LUNKEN    CLOUDY    84  69  60 W9        29.93S
HAMILTON       PTSUNNY   87  64  46 W10       29.94R
DAYTON         MOSUNNY   83  67  58 W8        29.96R
WRIGHT-PAT AFB MOSUNNY   87  65  49 W10       29.93R
DAYTON GENERAL MOSUNNY   86  64  47 SW10      29.94R
WILMINGTON     PTSUNNY   84  69  60 SW8       29.94S
$$

OHZ036-037-039>041-045>050-054>059-063>069-073>076-082>088-302300-
  CENTRAL AND SOUTHEAST OHIO

CITY           SKY/WX    TMP DP  RH WIND       PRES   REMARKS
COLUMBUS       MOSUNNY   85  66  53 W13       29.91S
OSU AIRPORT    MOSUNNY   86  68  54 W8        29.92S
BOLTON FIELD   SUNNY     82  70  65 MISG        N/A
RICKENBACK AFB MOSUNNY   85  69  58 W9        29.93R
NEWARK         CLOUDY    83  69  62 CALM      29.92R
MARION         PTSUNNY   78  68  71 NE9       29.95R
LANCASTER      SUNNY     86  68  54 W8        29.94R
ZANESVILLE     MOSUNNY   86  67  52 W8        29.93R
NEW PHILLY     LGT RAIN  75  70  84 W6        29.97R
$$




USA.gov is the U.S. government's official web portal to all federal, state and local government web resources and services.